| time (UTC) | temp C | wind direction | speed KPH | gust KPH | rain 1hr cm | rain 24hr cm | rain mn cm | humidity % | barometer mb |
| 20260504160124 | 21 | 283 | 1.6 | 1.6 | 0.00 | 0.00 | 0.00 | 38 | 1014.8 |
| 20260504151051 | 20 | 212 | 4.8 | 4.8 | 0.00 | 0.00 | 0.00 | 38 | 1015.2 |
| 20260504150548 | 20 | 280 | 1.6 | 3.2 | 0.00 | 0.00 | 0.00 | 37 | 1015.1 |
| 20260504141015 | 17 | 196 | 6.4 | 8.0 | 0.00 | 0.00 | 0.00 | 50 | 1015.2 |
| 20260504140511 | 17 | 245 | 1.6 | 3.2 | 0.00 | 0.00 | 0.00 | 50 | 1015.2 |
| 20260504130436 | 15 | 197 | 8.0 | 9.7 | 0.00 | 0.00 | 0.00 | 62 | 1015.4 |
| 20260504110323 | 8 | 214 | 3.2 | 3.2 | 0.00 | 0.00 | 0.00 | 78 | 1016.0 |
| 20260504100240 | 8 | 230 | 4.8 | 4.8 | 0.00 | 0.00 | 0.00 | 73 | 1016.1 |
| 20260504081633 | 8 | 236 | 3.2 | 3.2 | 0.00 | 0.00 | 0.00 | 60 | 1015.9 |
| 20260504081129 | 8 | 237 | 4.8 | 8.0 | 0.00 | 0.00 | 0.00 | 60 | 1015.8 |
| 20260504080626 | 8 | 247 | 3.2 | 4.8 | 0.00 | 0.00 | 0.00 | 61 | 1016.0 |
| 20260504080122 | 8 | 241 | 3.2 | 4.8 | 0.00 | 0.00 | 0.00 | 61 | 1015.9 |
| 20260504050439 | 10 | 272 | 1.6 | 3.2 | 0.00 | 0.00 | 0.00 | 50 | 1015.9 |
| 20260504045936 | 10 | 257 | 1.6 | 3.2 | 0.00 | 0.00 | 0.00 | 50 | 1015.8 |
| 20260504045432 | 10 | 282 | 3.2 | 3.2 | 0.00 | 0.00 | 0.00 | 51 | 1015.9 |
| 20260504044928 | 10 | 264 | 1.6 | 3.2 | 0.00 | 0.00 | 0.00 | 50 | 1015.7 |
| 20260504044426 | 10 | 272 | 3.2 | 3.2 | 0.00 | 0.00 | 0.00 | 49 | 1015.7 |
| 20260504043923 | 10 | 274 | 1.6 | 1.6 | 0.00 | 0.00 | 0.00 | 49 | 1015.7 |
| 20260504043420 | 10 | 278 | 0.0 | 0.0 | 0.00 | 0.00 | 0.00 | 50 | 1015.7 |
| 20260504042917 | 10 | 277 | 1.6 | 3.2 | 0.00 | 0.00 | 0.00 | 49 | 1015.6 |
| 20260504042414 | 10 | 255 | 3.2 | 3.2 | 0.00 | 0.00 | 0.00 | 49 | 1015.6 |
| 20260504041910 | 10 | 268 | 0.0 | 1.6 | 0.00 | 0.00 | 0.00 | 49 | 1015.7 |
| 20260504041406 | 10 | 279 | 1.6 | 1.6 | 0.00 | 0.00 | 0.00 | 48 | 1015.6 |
| 20260504040902 | 10 | 278 | 1.6 | 1.6 | 0.00 | 0.00 | 0.00 | 48 | 1015.5 |
| 20260504040400 | 10 | 272 | 1.6 | 1.6 | 0.00 | 0.00 | 0.00 | 49 | 1015.3 |
| 20260504035856 | 10 | 269 | 1.6 | 1.6 | 0.00 | 0.00 | 0.00 | 49 | 1015.4 |
| 20260504035354 | 10 | 271 | 0.0 | 1.6 | 0.00 | 0.00 | 0.00 | 48 | 1015.4 |
| 20260504034850 | 10 | 278 | 1.6 | 1.6 | 0.00 | 0.00 | 0.00 | 49 | 1015.3 |
| 20260504034348 | 10 | 273 | 3.2 | 3.2 | 0.00 | 0.00 | 0.00 | 49 | 1015.4 |
| 20260504033844 | 10 | 267 | 3.2 | 3.2 | 0.00 | 0.00 | 0.00 | 49 | 1015.1 |
| 20260504033343 | 10 | 272 | 1.6 | 1.6 | 0.00 | 0.00 | 0.00 | 50 | 1015.4 |
| 20260504032839 | 10 | 273 | 0.0 | 1.6 | 0.00 | 0.00 | 0.00 | 49 | 1015.1 |
| 20260504032336 | 10 | 275 | 1.6 | 1.6 | 0.00 | 0.00 | 0.00 | 48 | 1015.4 |
| 20260504031833 | 10 | 267 | 1.6 | 1.6 | 0.00 | 0.00 | 0.00 | 49 | 1015.3 |
| 20260504031330 | 10 | 262 | 1.6 | 1.6 | 0.00 | 0.00 | 0.00 | 49 | 1015.3 |
| 20260504030826 | 10 | 260 | 1.6 | 3.2 | 0.00 | 0.00 | 0.00 | 49 | 1015.4 |
| 20260504030324 | 10 | 274 | 1.6 | 1.6 | 0.00 | 0.00 | 0.00 | 47 | 1015.2 |
| 20260504025820 | 10 | 282 | 0.0 | 1.6 | 0.00 | 0.00 | 0.00 | 48 | 1015.4 |
| 20260504025317 | 10 | 274 | 1.6 | 1.6 | 0.00 | 0.00 | 0.00 | 48 | 1015.2 |
| 20260504024814 | 11 | 261 | 0.0 | 1.6 | 0.00 | 0.00 | 0.00 | 47 | 1015.4 |
| 20260504024310 | 11 | 261 | 3.2 | 3.2 | 0.00 | 0.00 | 0.00 | 48 | 1015.4 |
| 20260504023807 | 11 | 270 | 1.6 | 1.6 | 0.00 | 0.00 | 0.00 | 46 | 1015.3 |
| 20260504023303 | 11 | 279 | 1.6 | 1.6 | 0.00 | 0.00 | 0.00 | 46 | 1015.3 |
| 20260504022759 | 11 | 267 | 3.2 | 3.2 | 0.00 | 0.00 | 0.00 | 46 | 1015.3 |
| 20260504022256 | 11 | 279 | 0.0 | 1.6 | 0.00 | 0.00 | 0.00 | 46 | 1015.4 |
| 20260504021752 | 11 | 277 | 1.6 | 1.6 | 0.00 | 0.00 | 0.00 | 46 | 1015.3 |
| 20260504021250 | 11 | 277 | 1.6 | 1.6 | 0.00 | 0.00 | 0.00 | 46 | 1015.2 |
| 20260504020747 | 11 | 274 | 1.6 | 1.6 | 0.00 | 0.00 | 0.00 | 46 | 1015.2 |
| 20260504020243 | 11 | 285 | 1.6 | 1.6 | 0.00 | 0.00 | 0.00 | 47 | 1015.2 |
| 20260504015739 | 11 | 293 | 1.6 | 1.6 | 0.00 | 0.00 | 0.00 | 46 | 1015.2 |
| 20260504015236 | 11 | 294 | 0.0 | 0.0 | 0.00 | 0.00 | 0.00 | 47 | 1015.2 |
| 20260504014732 | 11 | 297 | 0.0 | 0.0 | 0.00 | 0.00 | 0.00 | 47 | 1015.1 |
| 20260504014229 | 11 | 299 | 1.6 | 1.6 | 0.00 | 0.00 | 0.00 | 46 | 1015.3 |
| 20260504013726 | 11 | 300 | 0.0 | 1.6 | 0.00 | 0.00 | 0.00 | 46 | 1015.0 |
| 20260504013224 | 11 | 303 | 0.0 | 1.6 | 0.00 | 0.00 | 0.00 | 47 | 1015.1 |
| 20260504012720 | 11 | 303 | 0.0 | 0.0 | 0.00 | 0.00 | 0.00 | 46 | 1015.0 |
| 20260504012218 | 11 | 304 | 1.6 | 1.6 | 0.00 | 0.00 | 0.00 | 46 | 1015.0 |
| 20260504011715 | 11 | 304 | 0.0 | 0.0 | 0.00 | 0.00 | 0.00 | 45 | 1015.0 |
| 20260504011212 | 11 | 307 | 0.0 | 0.0 | 0.00 | 0.00 | 0.00 | 45 | 1014.9 |
| 20260504010708 | 11 | 307 | 0.0 | 1.6 | 0.00 | 0.00 | 0.00 | 45 | 1014.9 |
| 20260504010203 | 11 | 309 | 0.0 | 1.6 | 0.00 | 0.00 | 0.00 | 46 | 1014.7 |
| 20260504005700 | 11 | 310 | 0.0 | 0.0 | 0.00 | 0.00 | 0.00 | 47 | 1014.9 |
| 20260504005157 | 11 | 310 | 1.6 | 3.2 | 0.00 | 0.00 | 0.00 | 48 | 1014.7 |
| 20260504004655 | 11 | 311 | 0.0 | 1.6 | 0.00 | 0.00 | 0.00 | 47 | 1014.5 |
| 20260504004152 | 11 | 316 | 0.0 | 1.6 | 0.00 | 0.00 | 0.00 | 45 | 1014.5 |
| 20260504003648 | 11 | 322 | 0.0 | 0.0 | 0.00 | 0.00 | 0.00 | 44 | 1014.6 |
| 20260504003145 | 11 | 322 | 0.0 | 0.0 | 0.00 | 0.00 | 0.00 | 45 | 1014.4 |
| 20260504002642 | 11 | 322 | 0.0 | 0.0 | 0.00 | 0.00 | 0.00 | 45 | 1014.2 |
| 20260504002139 | 11 | 323 | 0.0 | 0.0 | 0.00 | 0.00 | 0.00 | 44 | 1014.3 |
| 20260504001637 | 11 | 323 | 0.0 | 0.0 | 0.00 | 0.00 | 0.00 | 46 | 1014.3 |
| 20260504001133 | 11 | 323 | 0.0 | 0.0 | 0.00 | 0.00 | 0.00 | 43 | 1014.2 |
| 20260504000630 | 12 | 323 | 0.0 | 0.0 | 0.00 | 0.00 | 0.00 | 46 | 1014.1 |
| 20260504000128 | 12 | 322 | 1.6 | 1.6 | 0.00 | 0.00 | 0.00 | 45 | 1014.1 |
| 20260503235626 | 12 | 322 | 0.0 | 0.0 | 0.00 | 0.00 | 0.00 | 44 | 1014.4 |
| 20260503235122 | 12 | 322 | 0.0 | 1.6 | 0.00 | 0.00 | 0.00 | 43 | 1014.1 |
| 20260503234620 | 12 | 335 | 0.0 | 0.0 | 0.00 | 0.00 | 0.00 | 43 | 1013.9 |
| 20260503234118 | 12 | 335 | 0.0 | 1.6 | 0.00 | 0.00 | 0.00 | 41 | 1014.0 |
| 20260503233615 | 12 | 319 | 0.0 | 0.0 | 0.00 | 0.00 | 0.00 | 40 | 1013.9 |
| 20260503233110 | 13 | 317 | 0.0 | 0.0 | 0.00 | 0.00 | 0.00 | 41 | 1013.9 |
| 20260503232607 | 13 | 323 | 0.0 | 0.0 | 0.00 | 0.00 | 0.00 | 41 | 1013.9 |
| 20260503232105 | 13 | 343 | 1.6 | 1.6 | 0.00 | 0.00 | 0.00 | 40 | 1013.9 |
| 20260503231603 | 13 | 336 | 1.6 | 1.6 | 0.00 | 0.00 | 0.00 | 40 | 1013.9 |
| 20260503231059 | 13 | 328 | 0.0 | 0.0 | 0.00 | 0.00 | 0.00 | 40 | 1013.9 |
| 20260503230555 | 13 | 356 | 1.6 | 1.6 | 0.00 | 0.00 | 0.00 | 41 | 1013.9 |
| 20260503230053 | 13 | 312 | 1.6 | 1.6 | 0.00 | 0.00 | 0.00 | 38 | 1013.9 |
| 20260503225550 | 13 | 327 | 0.0 | 0.0 | 0.00 | 0.00 | 0.00 | 39 | 1013.7 |
| 20260503225045 | 13 | 270 | 3.2 | 3.2 | 0.00 | 0.00 | 0.00 | 40 | 1013.8 |
| 20260503224543 | 13 | 351 | 0.0 | 1.6 | 0.00 | 0.00 | 0.00 | 38 | 1013.7 |
| 20260503224040 | 13 | 324 | 1.6 | 1.6 | 0.00 | 0.00 | 0.00 | 40 | 1013.7 |
| 20260503223538 | 13 | 323 | 0.0 | 0.0 | 0.00 | 0.00 | 0.00 | 38 | 1013.7 |
| 20260503223033 | 13 | 290 | 0.0 | 0.0 | 0.00 | 0.00 | 0.00 | 36 | 1013.9 |
| 20260503222532 | 13 | 279 | 1.6 | 3.2 | 0.00 | 0.00 | 0.00 | 37 | 1013.7 |
| 20260503222030 | 14 | 318 | 0.0 | 1.6 | 0.00 | 0.00 | 0.00 | 41 | 1013.7 |
| 20260503221528 | 14 | 300 | 1.6 | 1.6 | 0.00 | 0.00 | 0.00 | 35 | 1013.7 |
| 20260503221025 | 14 | 286 | 3.2 | 3.2 | 0.00 | 0.00 | 0.00 | 34 | 1013.8 |
| 20260503220521 | 14 | 83 | 1.6 | 4.8 | 0.00 | 0.00 | 0.00 | 35 | 1013.7 |
| 20260503220018 | 14 | 319 | 1.6 | 1.6 | 0.00 | 0.00 | 0.00 | 34 | 1013.5 |
| 20260503215515 | 14 | 64 | 3.2 | 3.2 | 0.00 | 0.00 | 0.00 | 36 | 1013.7 |
| 20260503215012 | 14 | 292 | 0.0 | 1.6 | 0.00 | 0.00 | 0.00 | 35 | 1013.6 |
| 20260503214510 | 14 | 354 | 1.6 | 1.6 | 0.00 | 0.00 | 0.00 | 34 | 1013.5 |
| 20260503214007 | 14 | 283 | 3.2 | 3.2 | 0.00 | 0.00 | 0.00 | 35 | 1013.7 |
| 20260503213505 | 14 | 304 | 1.6 | 1.6 | 0.00 | 0.00 | 0.00 | 35 | 1013.6 |
| 20260503213001 | 14 | 346 | 3.2 | 3.2 | 0.00 | 0.00 | 0.00 | 33 | 1013.5 |
| 20260503212459 | 15 | 335 | 3.2 | 4.8 | 0.00 | 0.00 | 0.00 | 36 | 1013.5 |
| 20260503211956 | 15 | 337 | 1.6 | 1.6 | 0.00 | 0.00 | 0.00 | 34 | 1013.6 |
| 20260503211453 | 15 | 332 | 0.0 | 0.0 | 0.00 | 0.00 | 0.00 | 36 | 1013.5 |
| 20260503210948 | 15 | 330 | 0.0 | 1.6 | 0.00 | 0.00 | 0.00 | 37 | 1013.4 |
| 20260503210445 | 14 | 206 | 1.6 | 1.6 | 0.00 | 0.00 | 0.00 | 34 | 1013.5 |
| 20260503205940 | 14 | 282 | 3.2 | 3.2 | 0.00 | 0.00 | 0.00 | 35 | 1013.6 |
| 20260503205437 | 14 | 335 | 1.6 | 1.6 | 0.00 | 0.00 | 0.00 | 34 | 1013.5 |
| 20260503204933 | 14 | 319 | 1.6 | 1.6 | 0.00 | 0.00 | 0.00 | 34 | 1013.7 |
| 20260503204431 | 14 | 300 | 1.6 | 1.6 | 0.00 | 0.00 | 0.00 | 33 | 1013.9 |
| 20260503203928 | 15 | 337 | 4.8 | 8.0 | 0.00 | 0.00 | 0.00 | 34 | 1013.8 |
| 20260503203425 | 15 | 308 | 0.0 | 1.6 | 0.00 | 0.00 | 0.00 | 35 | 1013.6 |
| 20260503202922 | 15 | 4 | 4.8 | 8.0 | 0.00 | 0.00 | 0.00 | 36 | 1013.9 |
| 20260503202420 | 15 | 324 | 3.2 | 3.2 | 0.00 | 0.00 | 0.00 | 34 | 1013.8 |
| 20260503201918 | 14 | 320 | 1.6 | 1.6 | 0.00 | 0.00 | 0.00 | 34 | 1013.7 |
| 20260503201415 | 15 | 345 | 3.2 | 3.2 | 0.00 | 0.00 | 0.00 | 36 | 1013.9 |
| 20260503200913 | 14 | 259 | 1.6 | 1.6 | 0.00 | 0.00 | 0.00 | 34 | 1013.8 |
| 20260503200408 | 13 | 345 | 3.2 | 4.8 | 0.00 | 0.00 | 0.00 | 35 | 1013.9 |
| 20260503195905 | 13 | 321 | 0.0 | 0.0 | 0.00 | 0.00 | 0.00 | 34 | 1013.8 |
| 20260503195403 | 14 | 323 | 1.6 | 3.2 | 0.00 | 0.00 | 0.00 | 34 | 1014.0 |
| 20260503194859 | 14 | 277 | 4.8 | 4.8 | 0.00 | 0.00 | 0.00 | 33 | 1013.9 |
| 20260503194355 | 14 | 326 | 4.8 | 8.0 | 0.00 | 0.00 | 0.00 | 36 | 1014.1 |
| 20260503193852 | 14 | 291 | 3.2 | 3.2 | 0.00 | 0.00 | 0.00 | 35 | 1014.2 |
| 20260503193347 | 14 | 309 | 3.2 | 8.0 | 0.00 | 0.00 | 0.00 | 33 | 1014.2 |
| 20260503192843 | 15 | 20 | 1.6 | 1.6 | 0.00 | 0.00 | 0.00 | 32 | 1014.0 |
| 20260503192339 | 14 | 3 | 4.8 | 8.0 | 0.00 | 0.00 | 0.00 | 36 | 1014.2 |
| 20260503191835 | 14 | 342 | 3.2 | 3.2 | 0.00 | 0.00 | 0.00 | 33 | 1014.3 |
| 20260503191333 | 14 | 341 | 0.0 | 1.6 | 0.00 | 0.00 | 0.00 | 36 | 1014.4 |
| 20260503190829 | 13 | 312 | 1.6 | 1.6 | 0.00 | 0.00 | 0.00 | 35 | 1014.5 |
| 20260503190327 | 14 | 10 | 4.8 | 4.8 | 0.00 | 0.00 | 0.00 | 33 | 1014.3 |
| 20260503185824 | 15 | 334 | 1.6 | 3.2 | 0.00 | 0.00 | 0.00 | 32 | 1014.3 |
| 20260503185319 | 13 | 1 | 3.2 | 3.2 | 0.00 | 0.00 | 0.00 | 37 | 1014.3 |
| 20260503184814 | 14 | 321 | 6.4 | 9.7 | 0.00 | 0.00 | 0.00 | 34 | 1014.6 |
| 20260503184310 | 15 | 302 | 3.2 | 3.2 | 0.00 | 0.00 | 0.00 | 33 | 1014.5 |
| 20260503183806 | 14 | 321 | 1.6 | 3.2 | 0.00 | 0.00 | 0.00 | 34 | 1014.5 |
| 20260503183304 | 14 | 47 | 4.8 | 8.0 | 0.00 | 0.00 | 0.00 | 35 | 1014.5 |
| 20260503182801 | 13 | 259 | 4.8 | 4.8 | 0.00 | 0.00 | 0.00 | 35 | 1014.5 |
| 20260503182300 | 14 | 330 | 4.8 | 8.0 | 0.00 | 0.00 | 0.00 | 35 | 1014.8 |
| 20260503181756 | 13 | 241 | 4.8 | 4.8 | 0.00 | 0.00 | 0.00 | 33 | 1014.6 |
| 20260503181254 | 15 | 332 | 1.6 | 3.2 | 0.00 | 0.00 | 0.00 | 34 | 1014.7 |
| 20260503180750 | 15 | 35 | 1.6 | 1.6 | 0.00 | 0.00 | 0.00 | 34 | 1014.7 |
| 20260503180248 | 15 | 245 | 4.8 | 4.8 | 0.00 | 0.00 | 0.00 | 31 | 1014.7 |
| 20260503175744 | 15 | 288 | 3.2 | 3.2 | 0.00 | 0.00 | 0.00 | 32 | 1014.6 |
| 20260503175243 | 14 | 358 | 1.6 | 3.2 | 0.00 | 0.00 | 0.00 | 34 | 1014.6 |
| 20260503174738 | 15 | 284 | 4.8 | 8.0 | 0.00 | 0.00 | 0.00 | 33 | 1014.7 |
| 20260503174237 | 15 | 297 | 3.2 | 3.2 | 0.00 | 0.00 | 0.00 | 34 | 1014.8 |
| 20260503173736 | 14 | 217 | 3.2 | 3.2 | 0.00 | 0.00 | 0.00 | 34 | 1014.9 |
| 20260503173233 | 14 | 335 | 8.0 | 11.3 | 0.00 | 0.00 | 0.00 | 33 | 1015.0 |
| 20260503172730 | 14 | 334 | 3.2 | 4.8 | 0.00 | 0.00 | 0.00 | 33 | 1014.8 |
| 20260503172227 | 14 | 68 | 3.2 | 3.2 | 0.00 | 0.00 | 0.00 | 33 | 1014.9 |
| 20260503171723 | 14 | 123 | 3.2 | 4.8 | 0.00 | 0.00 | 0.00 | 35 | 1014.9 |
| 20260503171220 | 15 | 111 | 8.0 | 16.1 | 0.00 | 0.00 | 0.00 | 34 | 1015.0 |
| 20260503170717 | 14 | 6 | 1.6 | 3.2 | 0.00 | 0.00 | 0.00 | 35 | 1014.9 |
| 20260503170214 | 13 | 1 | 3.2 | 3.2 | 0.00 | 0.00 | 0.00 | 39 | 1015.0 |